Cloud_Cover
100 100 100 99 100 100 100 100 100 100 100 100 100 100 100 100 100 100 100 100 100 100 100 64 99 43 8 20 5 6 94 85 26 5 98 8 93 3
80 100 100 100 100 100 100 100 100 100 100 100 100 100 100 100 100 100 100 100 100 85 100 100 100 100 76 5 10 5 3 5 1 4 4 65 79 0
74 91 82 80 100 100 100 100 100 100 100 100 100 100 100 100 100 100 100 100 97 96 100 100 100 100 100 45 62 14 5 4 0 0 0 1 4 0
86 84 100 71 56 100 100 100 100 100 100 100 100 100 100 100 100 100 100 100 100 100 93 69 100 100 100 100 93 52 66 5 4 2 5 1 0 5
93 95 100 100 69 9 0 0 11 95 100 100 100 100 100 100 100 100 100 100 100 100 100 100 100 100 100 100 100 100 28 41 41 5 1 4 5 5
18 21 6 0 0 5 27 0 0 0 10 70 98 100 100 100 100 100 100 100 100 100 100 100 100 100 100 96 39 100 100 100 99 84 75 98 96 58
0 0 0 0 0 0 0 0 0 0 0 0 0 0 21 27 91 86 97 100 100 100 100 100 100 100 100 100 96 22 100 100 100 98 100 100 100 100
0 0 0 0 0 0 0 0 0 0 0 0 0 0 0 0 0 0 0 55 99 100 100 100 100 100 100 92 100 100 83 100 100 100 100 100 100 100
0 0 0 0 0 0 0 0 0 0 0 0 0 4 2 0 0 0 0 0 0 76 100 100 100 100 100 100 100 100 100 68 100 100 100 100 100 100
0 0 0 1 0 0 0 0 0 0 2 0 0 0 0 3 0 0 0 4 0 0 26 100 100 100 100 100 100 100 100 35 13 61 78 100 100 100
26 0 0 0 0 0 0 0 0 0 0 8 0 0 0 0 0 0 0 0 0 0 0 1 100 100 100 100 100 100 100 95 78 23 98 100 100 46
10 19 25 1 0 0 0 0 0 0 0 0 0 0 6 18 14 4 1 39 4 0 0 8 32 100 100 100 100 100 100 99 100 100 100 70 24 96
3 2 6 2 1 0 0 0 0 0 0 2 23 62 99 100 11 100 100 100 100 100 14 18 67 56 100 100 100 100 100 100 100 100 98 100 100 66
0 0 3 0 0 0 0 32 20 5 39 100 96 88 65 96 100 100 98 71 98 63 39 64 8 44 72 100 100 100 100 100 100 100 93 70 100 100
0 0 0 0 2 8 86 23 5 34 100 100 100 29 100 97 100 80 81 100 99 72 100 100 63 59 50 53 91 100 100 100 100 100 100 99 10 13
5 2 2 2 10 96 89 9 23 27 88 72 85 90 94 100 99 78 94 97 90 87 100 76 100 100 100 100 82 98 100 98 100 100 100 100 94 43
0 0 1 12 11 32 99 68 47 100 100 100 99 73 94 100 100 100 52 100 100 100 94 100 100 100 100 99 93 100 100 100 98 100 100 100 100 85
0 2 4 14 30 33 100 73 72 82 86 100 100 100 81 69 57 97 98 100 90 64 99 99 100 100 100 92 94 95 100 100 100 100 100 100 100 100
2 10 5 45 76 100 97 100 100 100 100 100 100 100 100 100 100 95 99 37 100 100 37 62 78 95 100 64 57 100 100 76 100 100 100 100 100 100
60 81 83 92 100 100 96 100 100 100 100 100 100 100 100 100 100 100 99 100 67 97 59 100 100 87 97 100 100 100 100 100 100 100 100 100 100 94
54 27 10 82 87 68 100 100 100 100 100 100 100 100 100 100 100 100 100 100 100 91 94 86 65 79 100 100 100 100 100 100 64 41 83 100 100 100
5 5 25 75 75 100 100 100 100 100 100 100 100 100 100 100 100 100 100 100 100 100 100 70 83 23 97 100 100 100 99 71 74 100 94 41 34 90
9 5 84 100 100 100 100 100 100 100 100 100 100 100 100 100 100 100 100 100 100 100 100 100 70 97 100 100 100 100 100 48 42 34 33 94 96 93